STARLINK-35881

Last updated on Mon Dec 15 2025 00:02:12 GMT+0000 (Coordinated Universal Time)

1 66830U 25280K 25348.25003472 -.01753280 00000+0 -13642-1 0 9999 2 66830 69.9942 194.5243 0003499 270.8757 45.0402 15.74490634 3149
UTC large
Height (km)
Speed (km/s)
/
Latitude / Longitude
Inclination (degrees)
Orbital Period (minutes)
Azimuth
Elevation
Range (km)
Doppler Factor

Next 0 passes for location: London (51.5072 / 0.1276)

Sorry there are no passes over London.